Location: DaVinci Observatory
(43.1080°N, 78.6453°W)
Time: 02:39:23
(UTC-04:00)

OTV 5 (USA 277) - Pass Details

Date: 20 June 2019
Orbit: 299 x 335 km, 54.5° (Epoch: 13 July)

Event Time Altitude Azimuth Distance (km) Brightness Sun altitude
Exits shadow 23:44:04 23° 269° (W) 773 ? -20.2°
Maximum altitude 23:45:25 41° 327° (NNW) 505 ? -20.3°
Drops below altitude 10° 23:48:07 10° 39° (NE) 1,269 ? -20.5°
Enters shadow 01:03:52 -29° 258° (WSW) 6,810 ? -23.4°
